When you browse on this site, cookies collect data to enhance your experience and personalize the content and advertising you see.
Visit our Privacy Policy to learn more. By continuing to use the site, you agree to this use of cookies and data.
  • In Czech Republic
  • List of Countries
  • For 7 days
  • Water Temperature
  • Satellite Maps
  • Weather Map
  • Weather Widgets
  • user-avatar
    Login

    Hourly Weather Orlino

    Today, 24 May, Friday

    Time Temperature Precipitation Wind Pressure Humidity
    00:00 +19°C° 0 mm 1 mps 743 mmHg 74%
    01:00 +19°C° 0 mm 1 mps 743 mmHg 77%
    02:00 +19°C° 0 mm 1 mps 743 mmHg 77%
    03:00 +18°C° 0 mm 1 mps 743 mmHg 79%
    04:00 +18°C° 0 mm 1 mps 743 mmHg 82%
    05:00 +16°C° 0 mm 1 mps 743 mmHg 84%
    06:00 +19°C° 0 mm 1 mps 744 mmHg 79%
    07:00 +20°C° 0 mm 1 mps 744 mmHg 74%
    08:00 +22°C° 0 mm 1 mps 744 mmHg 68%
    09:00 +23°C° 1.6 mm 1 mps 744 mmHg 66%
    10:00 +24°C° 1.6 mm 1 mps 744 mmHg 63%
    11:00 +25°C° 1.6 mm 1 mps 743 mmHg 61%
    12:00 +25°C° 0.5 mm 1 mps 743 mmHg 57%
    13:00 +26°C° 0.5 mm 1 mps 743 mmHg 54%
    14:00 +26°C° 0.5 mm 1 mps 743 mmHg 50%
    15:00 +26°C° 0.4 mm 1 mps 743 mmHg 54%
    16:00 +26°C° 0.4 mm 1 mps 743 mmHg 58%
    17:00 +25°C° 0.4 mm 2 mps 743 mmHg 61%
    18:00 +23°C° 0.4 mm 1 mps 743 mmHg 68%
    19:00 +22°C° 0.4 mm 1 mps 743 mmHg 75%
    20:00 +20°C° 0.4 mm 1 mps 742 mmHg 81%
    21:00 +19°C° 0 mm 1 mps 742 mmHg 83%
    22:00 +19°C° 0 mm 1 mps 742 mmHg 84%
    23:00 +18°C° 0 mm 1 mps 742 mmHg 86%

    Tomorrow, 25 May, Saturday

    Time Temperature Precipitation Wind Pressure Humidity
    00:00 +16°C° 0 mm 0 mps 742 mmHg 88%
    01:00 +15°C° 0 mm 0 mps 742 mmHg 89%
    02:00 +15°C° 0 mm 0 mps 742 mmHg 91%
    03:00 +16°C° 0 mm 1 mps 742 mmHg 92%
    04:00 +16°C° 0 mm 1 mps 742 mmHg 93%
    05:00 +15°C° 0 mm 1 mps 742 mmHg 94%
    06:00 +17°C° 0 mm 2 mps 742 mmHg 90%
    07:00 +18°C° 0 mm 2 mps 742 mmHg 86%
    08:00 +19°C° 0 mm 2 mps 742 mmHg 82%
    09:00 +21°C° 0.3 mm 3 mps 742 mmHg 75%
    10:00 +22°C° 0.3 mm 3 mps 742 mmHg 68%
    11:00 +23°C° 0.3 mm 4 mps 742 mmHg 61%
    12:00 +25°C° 0.1 mm 4 mps 741 mmHg 59%
    13:00 +25°C° 0.1 mm 4 mps 741 mmHg 57%
    14:00 +25°C° 0.1 mm 3 mps 741 mmHg 54%
    15:00 +23°C° 0.4 mm 4 mps 741 mmHg 58%
    16:00 +23°C° 0.4 mm 4 mps 741 mmHg 61%
    17:00 +22°C° 0.4 mm 4 mps 741 mmHg 64%
    18:00 +20°C° 0 mm 3 mps 741 mmHg 68%
    19:00 +19°C° 0 mm 3 mps 741 mmHg 72%
    20:00 +17°C° 0 mm 2 mps 741 mmHg 76%
    21:00 +16°C° 0 mm 2 mps 742 mmHg 79%
    22:00 +15°C° 0 mm 2 mps 742 mmHg 82%
    23:00 +14°C° 0 mm 2 mps 742 mmHg 84%

    Day after tomorrow, 26 May, Sunday

    Time Temperature Precipitation Wind Pressure Humidity
    00:00 +13°C° 0 mm 2 mps 742 mmHg 87%
    01:00 +13°C° 0 mm 2 mps 742 mmHg 90%
    02:00 +13°C° 0 mm 2 mps 742 mmHg 93%
    03:00 +12°C° 0 mm 2 mps 743 mmHg 93%
    04:00 +12°C° 0 mm 2 mps 743 mmHg 92%
    05:00 +10°C° 0 mm 2 mps 743 mmHg 92%
    06:00 +13°C° 0 mm 2 mps 743 mmHg 83%
    07:00 +14°C° 0 mm 2 mps 744 mmHg 75%
    08:00 +16°C° 0 mm 3 mps 744 mmHg 67%
    09:00 +17°C° 0 mm 3 mps 744 mmHg 61%
    10:00 +18°C° 0 mm 4 mps 744 mmHg 55%
    11:00 +19°C° 0 mm 4 mps 744 mmHg 49%
    12:00 +19°C° 0 mm 4 mps 744 mmHg 49%
    13:00 +20°C° 0 mm 5 mps 744 mmHg 49%
    14:00 +21°C° 0 mm 5 mps 743 mmHg 49%
    15:00 +20°C° 0 mm 5 mps 743 mmHg 51%
    16:00 +20°C° 0 mm 5 mps 743 mmHg 53%
    17:00 +20°C° 0 mm 5 mps 743 mmHg 56%
    18:00 +18°C° 0 mm 4 mps 743 mmHg 62%
    19:00 +17°C° 0 mm 3 mps 743 mmHg 68%
    20:00 +16°C° 0 mm 2 mps 743 mmHg 74%
    21:00 +15°C° 0 mm 2 mps 743 mmHg 77%
    22:00 +14°C° 0 mm 2 mps 743 mmHg 79%
    23:00 +14°C° 0 mm 2 mps 743 mmHg 82%

    27 May, Monday

    Time Temperature Precipitation Wind Pressure Humidity
    00:00 +13°C° 0 mm 2 mps 744 mmHg 86%
    01:00 +12°C° 0 mm 2 mps 744 mmHg 90%
    02:00 +10°C° 0 mm 2 mps 744 mmHg 93%
    03:00 +10°C° 0 mm 2 mps 744 mmHg 93%
    04:00 +10°C° 0 mm 2 mps 745 mmHg 93%
    05:00 +10°C° 0 mm 2 mps 745 mmHg 93%
    06:00 +13°C° 0 mm 2 mps 745 mmHg 83%
    07:00 +15°C° 0 mm 2 mps 746 mmHg 73%
    08:00 +17°C° 0 mm 2 mps 746 mmHg 63%
    09:00 +18°C° 0 mm 3 mps 746 mmHg 60%
    10:00 +20°C° 0 mm 3 mps 746 mmHg 56%
    11:00 +21°C° 0 mm 4 mps 746 mmHg 52%
    12:00 +21°C° 0 mm 4 mps 746 mmHg 52%
    13:00 +22°C° 0 mm 4 mps 746 mmHg 53%
    14:00 +22°C° 0 mm 4 mps 746 mmHg 53%
    15:00 +23°C° 0 mm 4 mps 746 mmHg 53%
    16:00 +24°C° 0 mm 3 mps 745 mmHg 53%
    17:00 +24°C° 0 mm 3 mps 745 mmHg 53%
    18:00 +22°C° 0 mm 3 mps 745 mmHg 60%
    19:00 +20°C° 0 mm 2 mps 745 mmHg 67%
    20:00 +18°C° 0 mm 2 mps 745 mmHg 74%
    21:00 +18°C° 0 mm 2 mps 745 mmHg 78%
    22:00 +17°C° 0 mm 2 mps 745 mmHg 81%
    23:00 +16°C° 0 mm 2 mps 745 mmHg 84%

    28 May, Tuesday

    Time Temperature Precipitation Wind Pressure Humidity
    00:00 +16°C° 0 mm 2 mps 745 mmHg 87%
    01:00 +16°C° 0 mm 2 mps 745 mmHg 91%
    02:00 +16°C° 0 mm 2 mps 745 mmHg 94%
    03:00 +16°C° 0 mm 2 mps 745 mmHg 94%
    04:00 +16°C° 0 mm 2 mps 745 mmHg 93%
    05:00 +17°C° 0 mm 2 mps 745 mmHg 93%
    06:00 +18°C° 0 mm 2 mps 746 mmHg 88%
    07:00 +20°C° 0 mm 2 mps 746 mmHg 82%
    08:00 +21°C° 0 mm 2 mps 746 mmHg 77%
    09:00 +22°C° 0.4 mm 3 mps 746 mmHg 76%
    10:00 +24°C° 0.4 mm 3 mps 745 mmHg 75%
    11:00 +25°C° 0.4 mm 4 mps 745 mmHg 74%
    12:00 +26°C° 0.7 mm 4 mps 745 mmHg 69%
    13:00 +26°C° 0.7 mm 5 mps 745 mmHg 64%
    14:00 +27°C° 0.7 mm 5 mps 744 mmHg 60%
    15:00 +27°C° 0 mm 5 mps 744 mmHg 57%
    16:00 +27°C° 0 mm 5 mps 744 mmHg 55%
    17:00 +27°C° 0 mm 5 mps 743 mmHg 53%
    18:00 +26°C° 0 mm 5 mps 743 mmHg 59%
    19:00 +23°C° 0 mm 5 mps 743 mmHg 65%
    20:00 +22°C° 0 mm 4 mps 744 mmHg 70%
    21:00 +21°C° 0 mm 4 mps 744 mmHg 72%
    22:00 +21°C° 0 mm 4 mps 744 mmHg 73%
    23:00 +20°C° 0 mm 4 mps 744 mmHg 75%

    29 May, Wednesday

    Time Temperature Precipitation Wind Pressure Humidity
    00:00 +20°C° 0 mm 4 mps 743 mmHg 77%
    01:00 +19°C° 0 mm 4 mps 743 mmHg 80%
    02:00 +19°C° 0 mm 4 mps 743 mmHg 83%
    03:00 +18°C° 0 mm 4 mps 743 mmHg 81%
    04:00 +18°C° 0 mm 4 mps 743 mmHg 79%
    05:00 +17°C° 0 mm 4 mps 743 mmHg 78%
    06:00 +18°C° 0.3 mm 4 mps 743 mmHg 78%
    07:00 +19°C° 0.3 mm 4 mps 743 mmHg 77%
    08:00 +19°C° 0.3 mm 4 mps 743 mmHg 77%
    09:00 +21°C° 0 mm 5 mps 743 mmHg 73%
    10:00 +23°C° 0 mm 5 mps 743 mmHg 68%
    11:00 +25°C° 0 mm 5 mps 743 mmHg 64%
    12:00 +26°C° 0.9 mm 5 mps 743 mmHg 65%
    13:00 +26°C° 0.9 mm 5 mps 743 mmHg 66%
    14:00 +27°C° 0.9 mm 5 mps 743 mmHg 67%
    15:00 +26°C° 1.1 mm 4 mps 743 mmHg 69%
    16:00 +26°C° 1.1 mm 4 mps 743 mmHg 70%
    17:00 +26°C° 1.1 mm 3 mps 743 mmHg 72%
    18:00 +24°C° 0.6 mm 3 mps 743 mmHg 76%
    19:00 +23°C° 0.6 mm 2 mps 744 mmHg 80%
    20:00 +21°C° 0.6 mm 1 mps 744 mmHg 85%
    21:00 +20°C° 0 mm 2 mps 744 mmHg 87%
    22:00 +19°C° 0 mm 2 mps 744 mmHg 89%
    23:00 +18°C° 0 mm 2 mps 744 mmHg 92%
    Show more